Location: Göttingen
(51.5413°N, 9.9158°E)
Time: 17:41:09
(UTC+02:00)

EO-88 - Pass Details

Date: 09 July 2022
Orbit: 453 x 461 km, 97.3° (Epoch: 14 August)

Event Time Altitude Azimuth Distance (km) Brightness Sun altitude
Exits shadow 22:47:28 - 175° (S) 1,775 ? -8.4°
Reaches altitude 10° 22:47:51 10° 176° (S) 1,619 ? -8.5°
Maximum altitude 22:51:18 65° 258° (WSW) 519 ? -8.8°
Drops below altitude 10° 22:54:46 10° 341° (NNW) 1,628 ? -9.1°
Sets 22:56:51 0° 345° (NNW) 2,507 ? -9.3°
